Total_Precipitation_Accumulation
1.19 1.08 0.99 1.02 0.98 0.95 0.95 0.97 0.90 0.83 0.82 0.80 0.79 0.76 0.73 0.62 0.54 0.52 0.48 0.48 0.46 0.50 0.72 0.93 1.12 1.38 1.61 1.79 1.96 1.94 1.68 1.53 1.40 1.28 1.27 1.38 1.43 1.43 1.45 1.54 1.67 1.64 1.51
1.30 1.19 1.06 1.02 1.00 0.96 0.96 0.92 0.88 0.81 0.75 0.68 0.63 0.63 0.71 0.70 0.63 0.58 0.52 0.51 0.49 0.49 0.61 0.81 1.05 1.29 1.57 1.87 2.11 2.29 2.06 1.88 1.71 1.52 1.35 1.36 1.45 1.49 1.49 1.55 1.66 1.81 1.83
1.46 1.40 1.26 1.11 0.99 0.95 0.97 1.00 0.96 0.91 0.83 0.72 0.64 0.60 0.60 0.61 0.61 0.59 0.54 0.50 0.52 0.52 0.56 0.73 0.93 1.15 1.43 1.79 2.12 2.37 2.49 2.27 2.08 1.90 1.67 1.45 1.45 1.55 1.63 1.71 1.76 1.87 1.96
1.60 1.55 1.48 1.35 1.21 1.08 1.01 1.01 0.96 0.91 0.86 0.80 0.73 0.65 0.61 0.58 0.54 0.53 0.51 0.50 0.53 0.53 0.55 0.64 0.78 1.02 1.26 1.50 1.85 2.19 2.57 2.55 2.49 2.35 2.20 1.88 1.64 1.63 1.74 1.83 1.96 2.02 2.02
1.78 1.69 1.60 1.55 1.52 1.38 1.21 1.09 1.03 0.94 0.85 0.80 0.78 0.75 0.70 0.64 0.61 0.59 0.53 0.48 0.48 0.50 0.53 0.57 0.66 0.82 1.04 1.28 1.59 1.94 2.31 2.65 2.76 2.75 2.68 2.48 2.10 1.82 1.83 1.94 2.00 2.12 2.22
1.95 1.89 1.77 1.66 1.68 1.61 1.49 1.32 1.18 1.07 0.95 0.86 0.86 0.85 0.80 0.75 0.68 0.62 0.58 0.54 0.51 0.50 0.53 0.56 0.58 0.65 0.81 1.01 1.30 1.69 2.08 2.52 2.89 2.98 2.96 2.96 2.81 2.39 2.15 2.15 2.15 2.24 2.40
2.15 2.16 2.01 1.90 1.83 1.72 1.54 1.45 1.42 1.32 1.18 1.04 1.04 1.05 0.96 0.85 0.81 0.70 0.61 0.55 0.53 0.49 0.49 0.56 0.60 0.60 0.69 0.86 1.03 1.30 1.74 2.19 2.72 3.26 3.28 3.20 3.28 3.09 2.72 2.55 2.49 2.53 2.70
2.19 2.40 2.30 2.13 2.00 1.89 1.77 1.60 1.51 1.51 1.43 1.25 1.14 1.18 1.21 1.15 0.97 0.79 0.67 0.57 0.54 0.53 0.52 0.52 0.58 0.61 0.63 0.72 0.82 1.04 1.35 1.81 2.30 3.02 3.69 3.76 3.79 3.87 3.49 3.07 2.90 2.89 2.98
1.88 2.04 2.15 2.06 2.06 2.00 1.92 1.79 1.63 1.57 1.60 1.47 1.24 1.30 1.39 1.25 1.00 0.86 0.75 0.65 0.57 0.56 0.54 0.52 0.55 0.59 0.62 0.71 0.76 0.85 1.03 1.39 1.87 2.47 3.31 4.05 4.27 4.47 4.39 3.75 3.40 3.32 3.29
1.75 1.83 1.93 1.99 1.87 1.80 1.76 1.75 1.69 1.56 1.59 1.62 1.46 1.24 1.15 1.11 1.16 1.05 0.85 0.77 0.74 0.67 0.61 0.56 0.54 0.59 0.64 0.71 0.82 0.87 0.93 1.09 1.46 2.00 2.72 3.63 4.42 4.83 5.11 4.72 4.04 3.78 3.69
1.75 1.83 1.84 1.90 1.94 1.83 1.68 1.61 1.65 1.66 1.60 1.56 1.49 1.35 1.16 0.98 0.95 1.10 0.98 0.84 0.86 0.83 0.77 0.70 0.65 0.66 0.68 0.76 0.81 0.90 1.02 1.10 1.43 1.73 2.18 2.85 3.92 4.81 5.45 5.56 4.96 4.27 3.93
1.71 1.80 1.84 1.80 1.79 1.85 1.83 1.67 1.59 1.64 1.60 1.55 1.50 1.43 1.36 1.25 1.05 1.03 1.00 0.82 0.79 0.77 0.80 0.86 0.85 0.83 0.82 0.84 0.94 1.14 1.14 1.23 1.47 1.60 1.72 2.07 2.84 3.88 4.81 5.38 5.22 4.58 4.15
1.64 1.67 1.76 1.79 1.73 1.71 1.76 1.75 1.67 1.63 1.61 1.59 1.54 1.45 1.35 1.26 1.17 1.18 1.21 1.03 0.85 0.74 0.75 0.82 0.87 0.93 0.97 0.96 1.07 1.20 1.19 1.33 1.42 1.51 1.53 1.67 2.09 2.88 3.81 4.70 5.14 4.82 4.32
1.52 1.49 1.54 1.62 1.59 1.54 1.57 1.66 1.63 1.56 1.58 1.61 1.58 1.54 1.46 1.30 1.23 1.29 1.39 1.45 1.30 0.94 0.78 0.78 0.80 0.88 1.01 1.07 1.18 1.32 1.25 1.35 1.43 1.51 1.56 1.58 1.73 2.03 2.72 3.75 4.99 5.41 4.76
1.47 1.50 1.50 1.50 1.44 1.40 1.40 1.43 1.47 1.43 1.46 1.51 1.54 1.57 1.59 1.46 1.35 1.30 1.34 1.54 1.85 1.62 1.04 0.79 0.81 0.86 0.94 1.06 1.25 1.15 1.07 1.16 1.23 1.32 1.43 1.51 1.60 1.71 1.98 2.58 3.54 4.87 5.49
1.43 1.48 1.50 1.49 1.44 1.35 1.36 1.37 1.33 1.27 1.33 1.37 1.41 1.50 1.56 1.49 1.41 1.34 1.38 1.41 1.53 1.73 1.43 0.86 0.79 0.83 0.95 1.01 1.14 1.04 1.06 1.24 1.24 1.28 1.35 1.42 1.51 1.58 1.71 1.98 2.51 3.35 4.53
1.36 1.34 1.38 1.42 1.42 1.37 1.34 1.41 1.37 1.29 1.30 1.31 1.33 1.37 1.40 1.42 1.45 1.37 1.36 1.37 1.35 1.42 1.43 0.92 0.76 0.79 0.97 1.06 1.05 0.99 1.02 1.08 1.11 1.25 1.28 1.33 1.41 1.51 1.69 1.88 2.16 2.59 3.24
1.35 1.35 1.33 1.35 1.36 1.37 1.38 1.40 1.37 1.30 1.29 1.28 1.28 1.27 1.27 1.32 1.39 1.33 1.29 1.25 1.21 1.17 1.23 1.06 0.82 0.80 0.87 0.95 1.06 1.14 1.12 1.10 1.05 1.17 1.21 1.31 1.45 1.50 1.61 1.80 2.05 2.33 2.67
1.28 1.31 1.34 1.34 1.37 1.40 1.39 1.33 1.34 1.29 1.24 1.24 1.26 1.26 1.22 1.29 1.36 1.30 1.29 1.22 1.13 1.07 1.07 1.09 0.92 0.82 0.86 0.90 1.07 1.24 1.25 1.25 1.18 1.21 1.24 1.31 1.42 1.52 1.59 1.72 1.95 2.17 2.33
1.28 1.23 1.22 1.28 1.38 1.54 1.59 1.54 1.55 1.43 1.31 1.24 1.19 1.16 1.18 1.30 1.34 1.35 1.39 1.29 1.22 1.23 1.23 1.26 1.13 0.99 0.99 1.00 1.19 1.43 1.53 1.48 1.42 1.27 1.31 1.36 1.47 1.59 1.61 1.61 1.68 1.79 1.93
1.25 1.17 1.15 1.21 1.31 1.69 2.09 2.09 1.98 1.71 1.41 1.24 1.15 1.13 1.18 1.33 1.39 1.56 1.69 1.57 1.54 1.64 1.60 1.59 1.47 1.35 1.27 1.30 1.38 1.43 1.60 1.62 1.60 1.44 1.34 1.28 1.31 1.33 1.42 1.52 1.59 1.65 1.75
1.33 1.23 1.16 1.16 1.22 1.52 2.22 2.38 2.04 1.58 1.37 1.25 1.19 1.13 1.13 1.26 1.30 1.43 1.62 1.71 1.77 1.90 1.97 1.94 1.83 1.67 1.41 1.33 1.37 1.51 1.61 1.78 1.85 1.54 1.45 1.41 1.35 1.44 1.39 1.40 1.61 1.64 1.70
1.44 1.42 1.27 1.16 1.13 1.32 2.00 2.16 1.89 1.48 1.31 1.24 1.17 1.15 1.14 1.20 1.27 1.24 1.37 1.44 1.48 1.64 1.87 1.98 2.02 1.62 1.40 1.34 1.57 1.77 1.72 1.80 1.77 1.66 1.78 1.75 1.45 1.48 1.42 1.53 1.74 1.65 1.65
1.37 1.43 1.37 1.26 1.16 1.24 1.80 1.98 1.78 1.45 1.31 1.23 1.14 1.12 1.12 1.15 1.25 1.46 1.42 1.38 1.29 1.31 1.51 1.71 1.96 1.78 1.59 1.61 1.95 2.27 2.35 2.22 1.82 1.61 1.79 2.01 1.56 1.46 1.51 1.61 1.77 1.69 1.60
1.28 1.30 1.30 1.29 1.23 1.22 1.58 1.86 1.69 1.38 1.33 1.24 1.12 1.10 1.12 1.13 1.39 1.67 1.57 1.42 1.26 1.17 1.27 1.59 1.89 2.02 2.07 2.18 2.41 2.73 2.89 2.71 2.24 1.71 1.69 1.96 1.76 1.57 1.72 1.91 1.96 1.86 1.62
1.22 1.22 1.24 1.25 1.18 1.12 1.39 1.68 1.67 1.37 1.29 1.23 1.16 1.12 1.25 1.34 1.54 1.68 1.53 1.49 1.57 1.36 1.20 1.23 1.32 1.43 1.51 1.67 2.07 2.36 2.67 2.75 2.39 2.17 1.81 1.91 2.02 2.01 2.28 2.15 2.00 1.80 1.61